Year,Month,Day,Hour,Minute,Value (Times are PST for temperature in C)
2019,02,05,00,00,-5.00
2019,02,05,00,01,-5.00
2019,02,05,00,02,-5.00
2019,02,05,00,03,-5.00
2019,02,05,00,04,-5.00
2019,02,05,00,05,-5.00
2019,02,05,00,06,-5.00
2019,02,05,00,07,-5.10
2019,02,05,00,08,-5.10
2019,02,05,00,09,-5.10
2019,02,05,00,10,-5.10
2019,02,05,00,11,-5.10
2019,02,05,00,12,-5.10
2019,02,05,00,13,-5.10
2019,02,05,00,14,-5.10
2019,02,05,00,15,-5.10
2019,02,05,00,16,-5.20
2019,02,05,00,17,-5.20
2019,02,05,00,18,-5.20
2019,02,05,00,19,-5.20
2019,02,05,00,20,-5.20
2019,02,05,00,21,-5.20
2019,02,05,00,22,-5.20
2019,02,05,00,23,-5.20
2019,02,05,00,24,-5.20
2019,02,05,00,25,-5.20
2019,02,05,00,26,-5.20
2019,02,05,00,27,-5.20
2019,02,05,00,28,-5.20
2019,02,05,00,29,-5.30
2019,02,05,00,30,-5.30
2019,02,05,00,31,-5.30
2019,02,05,00,32,-5.30
2019,02,05,00,33,-5.30
2019,02,05,00,34,-5.30
2019,02,05,00,35,-5.30
2019,02,05,00,36,-5.30
2019,02,05,00,37,-5.30
2019,02,05,00,38,-5.30
2019,02,05,00,39,-5.30
2019,02,05,00,40,-5.40
2019,02,05,00,41,-5.40
2019,02,05,00,42,-5.40
2019,02,05,00,43,-5.40
2019,02,05,00,44,-5.40
2019,02,05,00,45,-5.40
2019,02,05,00,46,-5.40
2019,02,05,00,47,-5.50
2019,02,05,00,48,-5.50
2019,02,05,00,49,-5.50
2019,02,05,00,50,-5.60
2019,02,05,00,51,-5.60
2019,02,05,00,52,-5.60
2019,02,05,00,53,-5.60
2019,02,05,00,54,-5.60
2019,02,05,00,55,-5.60
2019,02,05,00,56,-5.70
2019,02,05,00,57,-5.70
2019,02,05,00,58,-5.70
2019,02,05,00,59,-5.70
2019,02,05,01,00,-5.70
2019,02,05,01,01,-5.70
2019,02,05,01,02,-5.70
2019,02,05,01,03,-5.70
2019,02,05,01,04,-5.70
2019,02,05,01,05,-5.70
2019,02,05,01,06,-5.70
2019,02,05,01,07,-5.70
2019,02,05,01,08,-5.80
2019,02,05,01,09,-5.80
2019,02,05,01,10,-5.80
2019,02,05,01,11,-5.80
2019,02,05,01,12,-5.80
2019,02,05,01,13,-5.80
2019,02,05,01,14,-5.80
2019,02,05,01,15,-5.80
2019,02,05,01,16,-5.80
2019,02,05,01,17,-5.80
2019,02,05,01,18,-5.80
2019,02,05,01,19,-5.80
2019,02,05,01,20,-5.80
2019,02,05,01,21,-5.70
2019,02,05,01,22,-5.70
2019,02,05,01,23,-5.70
2019,02,05,01,24,-5.70
2019,02,05,01,25,-5.70
2019,02,05,01,26,-5.70
2019,02,05,01,27,-5.70
2019,02,05,01,28,-5.70
2019,02,05,01,29,-5.70
2019,02,05,01,30,-5.80
2019,02,05,01,31,-5.80
2019,02,05,01,32,-5.80
2019,02,05,01,33,-5.80
2019,02,05,01,34,-5.80
2019,02,05,01,35,-5.80
2019,02,05,01,36,-5.80
2019,02,05,01,37,-5.80
2019,02,05,01,38,-5.80
2019,02,05,01,39,-5.80
2019,02,05,01,40,-5.90
2019,02,05,01,41,-5.90
2019,02,05,01,42,-5.90
2019,02,05,01,43,-5.90
2019,02,05,01,44,-5.90
2019,02,05,01,45,-5.90
2019,02,05,01,46,-5.90
2019,02,05,01,47,-5.90
2019,02,05,01,48,-6.00
2019,02,05,01,49,-6.00
2019,02,05,01,50,-6.00
2019,02,05,01,51,-6.00
2019,02,05,01,52,-6.00
2019,02,05,01,53,-6.10
2019,02,05,01,54,-6.10
2019,02,05,01,55,-6.10
2019,02,05,01,56,-6.10
2019,02,05,01,57,-6.10
2019,02,05,01,58,-6.10
2019,02,05,01,59,-6.10
2019,02,05,02,00,-6.10
2019,02,05,02,01,-6.10
2019,02,05,02,02,-6.10
2019,02,05,02,03,-6.10
2019,02,05,02,04,-6.00
2019,02,05,02,05,-6.00
2019,02,05,02,06,-6.00
2019,02,05,02,07,-6.00
2019,02,05,02,08,-6.00
2019,02,05,02,09,-6.00
2019,02,05,02,10,-6.00
2019,02,05,02,11,-6.10
2019,02,05,02,12,-6.10
2019,02,05,02,13,-6.10
2019,02,05,02,14,-6.10
2019,02,05,02,15,-6.10
2019,02,05,02,16,-6.10
2019,02,05,02,17,-6.10
2019,02,05,02,18,-6.10
2019,02,05,02,19,-6.10
2019,02,05,02,20,-6.10
2019,02,05,02,21,-6.20
2019,02,05,02,22,-6.20
2019,02,05,02,23,-6.20
2019,02,05,02,24,-6.20
2019,02,05,02,25,-6.20
2019,02,05,02,26,-6.20
2019,02,05,02,27,-6.20
2019,02,05,02,28,-6.20
2019,02,05,02,29,-6.20
2019,02,05,02,30,-6.20
2019,02,05,02,31,-6.20
2019,02,05,02,32,-6.20
2019,02,05,02,33,-6.20
2019,02,05,02,34,-6.20
2019,02,05,02,35,-6.20
2019,02,05,02,36,-6.20
2019,02,05,02,37,-6.20
2019,02,05,02,38,-6.20
2019,02,05,02,39,-6.20
2019,02,05,02,40,-6.20
2019,02,05,02,41,-6.10
2019,02,05,02,42,-6.20
2019,02,05,02,43,-6.20
2019,02,05,02,44,-6.10
2019,02,05,02,45,-6.10
2019,02,05,02,46,-6.10
2019,02,05,02,47,-6.10
2019,02,05,02,48,-6.10
2019,02,05,02,49,-6.10
2019,02,05,02,50,-6.10
2019,02,05,02,51,-6.10
2019,02,05,02,52,-6.10
2019,02,05,02,53,-6.10
2019,02,05,02,54,-6.10
2019,02,05,02,55,-6.10
2019,02,05,02,56,-6.10
2019,02,05,02,57,-6.10
2019,02,05,02,58,-6.10
2019,02,05,02,59,-6.10
2019,02,05,03,00,-6.10
2019,02,05,03,01,-6.10
2019,02,05,03,02,-6.10
2019,02,05,03,03,-6.10
2019,02,05,03,04,-6.10
2019,02,05,03,05,-6.10
2019,02,05,03,06,-6.10
2019,02,05,03,07,-6.10
2019,02,05,03,08,-6.00
2019,02,05,03,09,-6.00
2019,02,05,03,10,-6.00
2019,02,05,03,11,-6.10
2019,02,05,03,12,-6.10
2019,02,05,03,13,-6.00
2019,02,05,03,14,-6.10
2019,02,05,03,15,-6.10
2019,02,05,03,16,-6.10
2019,02,05,03,17,-6.10
2019,02,05,03,18,-6.10
2019,02,05,03,19,-6.10
2019,02,05,03,20,-6.00
2019,02,05,03,21,-6.00
2019,02,05,03,22,-6.00
2019,02,05,03,23,-6.00
2019,02,05,03,24,-6.00
2019,02,05,03,25,-6.00
2019,02,05,03,26,-6.00
2019,02,05,03,27,-6.00
2019,02,05,03,28,-6.10
2019,02,05,03,29,-6.10
2019,02,05,03,30,-6.10
2019,02,05,03,31,-6.10
2019,02,05,03,32,-6.10
2019,02,05,03,33,-6.10
2019,02,05,03,34,-6.10
2019,02,05,03,35,-6.10
2019,02,05,03,36,-6.10
2019,02,05,03,37,-6.10
2019,02,05,03,38,-6.10
2019,02,05,03,39,-6.10
2019,02,05,03,40,-6.10
2019,02,05,03,41,-6.10
2019,02,05,03,42,-6.10
2019,02,05,03,43,-6.20
2019,02,05,03,44,-6.20
2019,02,05,03,45,-6.20
2019,02,05,03,46,-6.20
2019,02,05,03,47,-6.20
2019,02,05,03,48,-6.20
2019,02,05,03,49,-6.20
2019,02,05,03,50,-6.10
2019,02,05,03,51,-6.10
2019,02,05,03,52,-6.10
2019,02,05,03,53,-6.00
2019,02,05,03,54,-6.00
2019,02,05,03,55,-5.90
2019,02,05,03,56,-5.90
2019,02,05,03,57,-5.90
2019,02,05,03,58,-5.90
2019,02,05,03,59,-5.90
2019,02,05,04,00,-5.90
2019,02,05,04,01,-5.90
2019,02,05,04,02,-5.90
2019,02,05,04,03,-5.90
2019,02,05,04,04,-5.90
2019,02,05,04,05,-6.00
2019,02,05,04,06,-6.00
2019,02,05,04,07,-5.90
2019,02,05,04,08,-5.90
2019,02,05,04,09,-5.90
2019,02,05,04,10,-5.90
2019,02,05,04,11,-5.90
2019,02,05,04,12,-5.90
2019,02,05,04,13,-5.90
2019,02,05,04,14,-5.90
2019,02,05,04,15,-5.90
2019,02,05,04,16,-5.90
2019,02,05,04,17,-6.00
2019,02,05,04,18,-6.00
2019,02,05,04,19,-6.00
2019,02,05,04,20,-6.00
2019,02,05,04,21,-6.10
2019,02,05,04,22,-6.10
2019,02,05,04,23,-6.10
2019,02,05,04,24,-6.10
2019,02,05,04,25,-6.10
2019,02,05,04,26,-6.10
2019,02,05,04,27,-6.10
2019,02,05,04,28,-6.10
2019,02,05,04,29,-6.10
2019,02,05,04,30,-6.10
2019,02,05,04,31,-6.10
2019,02,05,04,32,-6.10
2019,02,05,04,33,-6.10
2019,02,05,04,34,-6.10
2019,02,05,04,35,-6.10
2019,02,05,04,36,-6.10
2019,02,05,04,37,-6.10
2019,02,05,04,38,-6.10
2019,02,05,04,39,-6.10
2019,02,05,04,40,-6.10
2019,02,05,04,41,-6.20
2019,02,05,04,42,-6.20
2019,02,05,04,43,-6.20
2019,02,05,04,44,-6.20
2019,02,05,04,45,-6.20
2019,02,05,04,46,-6.30
2019,02,05,04,47,-6.30
2019,02,05,04,48,-6.30
2019,02,05,04,49,-6.30
2019,02,05,04,50,-6.30
2019,02,05,04,51,-6.30
2019,02,05,04,52,-6.30
2019,02,05,04,53,-6.30
2019,02,05,04,54,-6.30
2019,02,05,04,55,-6.30
2019,02,05,04,56,-6.40
2019,02,05,04,57,-6.40
2019,02,05,04,58,-6.40
2019,02,05,04,59,-6.40
2019,02,05,05,00,-6.40
2019,02,05,05,01,-6.40
2019,02,05,05,02,-6.40
2019,02,05,05,03,-6.40
2019,02,05,05,04,-6.40
2019,02,05,05,05,-6.40
2019,02,05,05,06,-6.40
2019,02,05,05,07,-6.40
2019,02,05,05,08,-6.40
2019,02,05,05,09,-6.40
2019,02,05,05,10,-6.40
2019,02,05,05,11,-6.40
2019,02,05,05,12,-6.40
2019,02,05,05,13,-6.40
2019,02,05,05,14,-6.40
2019,02,05,05,15,-6.40
2019,02,05,05,16,-6.40
2019,02,05,05,17,-6.40
2019,02,05,05,18,-6.40
2019,02,05,05,19,-6.40
2019,02,05,05,20,-6.40
2019,02,05,05,21,-6.40
2019,02,05,05,22,-6.50
2019,02,05,05,23,-6.50
2019,02,05,05,24,-6.50
2019,02,05,05,25,-6.50
2019,02,05,05,26,-6.50
2019,02,05,05,27,-6.50
2019,02,05,05,28,-6.50
2019,02,05,05,29,-6.50
2019,02,05,05,30,-6.50
2019,02,05,05,31,-6.60
2019,02,05,05,32,-6.60
2019,02,05,05,33,-6.60
2019,02,05,05,34,-6.60
2019,02,05,05,35,-6.60
2019,02,05,05,36,-6.60
2019,02,05,05,37,-6.60
2019,02,05,05,38,-6.50
2019,02,05,05,39,-6.50
2019,02,05,05,40,-6.40
2019,02,05,05,41,-6.40
2019,02,05,05,42,-6.40
2019,02,05,05,43,-6.30
2019,02,05,05,44,-6.30
2019,02,05,05,45,-6.30
2019,02,05,05,46,-6.30
2019,02,05,05,47,-6.30
2019,02,05,05,48,-6.30
2019,02,05,05,49,-6.30
2019,02,05,05,50,-6.40
2019,02,05,05,51,-6.40
2019,02,05,05,52,-6.40
2019,02,05,05,53,-6.40
2019,02,05,05,54,-6.40
2019,02,05,05,55,-6.40
2019,02,05,05,56,-6.40
2019,02,05,05,57,-6.40
2019,02,05,05,58,-6.40
2019,02,05,05,59,-6.40
2019,02,05,06,00,-6.40
2019,02,05,06,01,-6.40
2019,02,05,06,02,-6.40
2019,02,05,06,03,-6.40
2019,02,05,06,04,-6.40
2019,02,05,06,05,-6.40
2019,02,05,06,06,-6.40
2019,02,05,06,07,-6.40
2019,02,05,06,08,-6.40
2019,02,05,06,09,-6.40
2019,02,05,06,10,-6.40
2019,02,05,06,11,-6.40
2019,02,05,06,12,-6.40
2019,02,05,06,13,-6.40
2019,02,05,06,14,-6.50
2019,02,05,06,15,-6.50
2019,02,05,06,16,-6.50
2019,02,05,06,17,-6.50
2019,02,05,06,18,-6.50
2019,02,05,06,19,-6.60
2019,02,05,06,20,-6.60
2019,02,05,06,21,-6.60
2019,02,05,06,22,-6.60
2019,02,05,06,23,-6.60
2019,02,05,06,24,-6.60
2019,02,05,06,25,-6.60
2019,02,05,06,26,-6.60
2019,02,05,06,27,-6.70
2019,02,05,06,28,-6.70
2019,02,05,06,29,-6.70
2019,02,05,06,30,-6.70
2019,02,05,06,31,-6.70
2019,02,05,06,32,-6.70
2019,02,05,06,33,-6.70
2019,02,05,06,34,-6.70
2019,02,05,06,35,-6.70
2019,02,05,06,36,-6.70
2019,02,05,06,37,-6.80
2019,02,05,06,38,-6.80
2019,02,05,06,39,-6.80
2019,02,05,06,40,-6.80
2019,02,05,06,41,-6.80
2019,02,05,06,42,-6.80
2019,02,05,06,43,-6.80
2019,02,05,06,44,-6.80
2019,02,05,06,45,-6.80
2019,02,05,06,46,-6.80
2019,02,05,06,47,-6.80
2019,02,05,06,48,-6.80
2019,02,05,06,49,-6.70
2019,02,05,06,50,-6.70
2019,02,05,06,51,-6.70
2019,02,05,06,52,-6.70
2019,02,05,06,53,-6.80
2019,02,05,06,54,-6.80
2019,02,05,06,55,-6.80
2019,02,05,06,56,-6.80
2019,02,05,06,57,-6.80
2019,02,05,06,58,-6.80
2019,02,05,06,59,-6.80
2019,02,05,07,00,-6.80
2019,02,05,07,01,-6.80
2019,02,05,07,02,-6.80
2019,02,05,07,03,-6.70
2019,02,05,07,04,-6.70
2019,02,05,07,05,-6.70
2019,02,05,07,06,-6.70
2019,02,05,07,07,-6.60
2019,02,05,07,08,-6.60
2019,02,05,07,09,-6.50
2019,02,05,07,10,-6.50
2019,02,05,07,11,-6.50
2019,02,05,07,12,-6.50
2019,02,05,07,13,-6.50
2019,02,05,07,14,-6.50
2019,02,05,07,15,-6.50
2019,02,05,07,16,-6.50
2019,02,05,07,17,-6.50
2019,02,05,07,18,-6.60
2019,02,05,07,19,-6.60
2019,02,05,07,20,-6.60
2019,02,05,07,21,-6.60
2019,02,05,07,22,-6.60
2019,02,05,07,23,-6.60
2019,02,05,07,24,-6.60
2019,02,05,07,25,-6.60
2019,02,05,07,26,-6.70
2019,02,05,07,27,-6.70
2019,02,05,07,28,-6.70
2019,02,05,07,29,-6.70
2019,02,05,07,30,-6.70
2019,02,05,07,31,-6.70
2019,02,05,07,32,-6.70
2019,02,05,07,33,-6.70
2019,02,05,07,34,-6.70
2019,02,05,07,35,-6.70
2019,02,05,07,36,-6.80
2019,02,05,07,37,-6.80
2019,02,05,07,38,-6.80
2019,02,05,07,39,-6.80
2019,02,05,07,40,-6.80
2019,02,05,07,41,-6.80
2019,02,05,07,42,-6.90
2019,02,05,07,43,-6.90
2019,02,05,07,44,-6.90
2019,02,05,07,45,-6.90
2019,02,05,07,46,-6.90
2019,02,05,07,47,-6.90
2019,02,05,07,48,-7.00
2019,02,05,07,49,-7.00
2019,02,05,07,50,-7.00
2019,02,05,07,51,-7.00
2019,02,05,07,52,-7.00
2019,02,05,07,53,-7.00
2019,02,05,07,54,-7.00
2019,02,05,07,55,-7.00
2019,02,05,07,56,-7.00
2019,02,05,07,57,-7.00
2019,02,05,07,58,-7.00
2019,02,05,07,59,-7.00
2019,02,05,08,00,-7.00
2019,02,05,08,01,-7.00
2019,02,05,08,02,-7.00
2019,02,05,08,03,-7.00
2019,02,05,08,04,-7.00
2019,02,05,08,05,-7.00
2019,02,05,08,06,-7.00
2019,02,05,08,07,-7.00
2019,02,05,08,08,-7.00
2019,02,05,08,09,-7.00
2019,02,05,08,10,-7.00
2019,02,05,08,11,-7.00
2019,02,05,08,12,-7.00
2019,02,05,08,13,-7.00
2019,02,05,08,14,-7.00
2019,02,05,08,15,-7.00
2019,02,05,08,16,-7.00
2019,02,05,08,17,-6.90
2019,02,05,08,18,-6.90
2019,02,05,08,19,-6.90
2019,02,05,08,20,-6.90
2019,02,05,08,21,-6.90
2019,02,05,08,22,-6.90
2019,02,05,08,23,-6.90
2019,02,05,08,24,-6.80
2019,02,05,08,25,-6.80
2019,02,05,08,26,-6.80
2019,02,05,08,27,-6.70
2019,02,05,08,28,-6.70
2019,02,05,08,29,-6.70
2019,02,05,08,30,-6.60
2019,02,05,08,31,-6.60
2019,02,05,08,32,-6.60
2019,02,05,08,33,-6.50
2019,02,05,08,34,-6.50
2019,02,05,08,35,-6.40
2019,02,05,08,36,-6.30
2019,02,05,08,37,-6.30
2019,02,05,08,38,-6.20
2019,02,05,08,39,-6.20
2019,02,05,08,40,-6.10
2019,02,05,08,41,-6.10
2019,02,05,08,42,-6.00
2019,02,05,08,43,-6.00
2019,02,05,08,44,-5.90
2019,02,05,08,45,-5.90
2019,02,05,08,46,-5.80
2019,02,05,08,47,-5.80
2019,02,05,08,48,-5.80
2019,02,05,08,49,-5.70
2019,02,05,08,50,-5.70
2019,02,05,08,51,-5.70
2019,02,05,08,52,-5.60
2019,02,05,08,53,-5.60
2019,02,05,08,54,-5.50
2019,02,05,08,55,-5.50
2019,02,05,08,56,-5.40
2019,02,05,08,57,-5.40
2019,02,05,08,58,-5.30
2019,02,05,08,59,-5.30
2019,02,05,09,00,-5.20
2019,02,05,09,01,-5.20
2019,02,05,09,02,-5.10
2019,02,05,09,03,-5.00
2019,02,05,09,04,-5.00
2019,02,05,09,05,-4.90
2019,02,05,09,06,-4.80
2019,02,05,09,07,-4.80
2019,02,05,09,08,-4.70
2019,02,05,09,09,-4.60
2019,02,05,09,10,-4.60
2019,02,05,09,11,-4.50
2019,02,05,09,12,-4.30
2019,02,05,09,13,-4.30
2019,02,05,09,14,-4.20
2019,02,05,09,15,-4.10
2019,02,05,09,16,-4.10
2019,02,05,09,17,-4.00
2019,02,05,09,18,-3.90
2019,02,05,09,19,-3.90
2019,02,05,09,20,-3.80
2019,02,05,09,21,-3.80
2019,02,05,09,22,-3.70
2019,02,05,09,23,-3.70
2019,02,05,09,24,-3.60
2019,02,05,09,25,-3.60
2019,02,05,09,26,-3.50
2019,02,05,09,27,-3.40
2019,02,05,09,28,-3.40
2019,02,05,09,29,-3.30
2019,02,05,09,30,-3.20
2019,02,05,09,31,-3.10
2019,02,05,09,32,-3.00
2019,02,05,09,33,-2.90
2019,02,05,09,34,-2.90
2019,02,05,09,35,-2.80
2019,02,05,09,36,-2.70
2019,02,05,09,37,-2.60
2019,02,05,09,38,-2.60
2019,02,05,09,39,-2.50
2019,02,05,09,40,-2.40
2019,02,05,09,41,-2.40
2019,02,05,09,42,-2.30
2019,02,05,09,43,-2.30
2019,02,05,09,44,-2.20
2019,02,05,09,45,-2.20
2019,02,05,09,46,-2.20
2019,02,05,09,47,-2.10
2019,02,05,09,48,-2.10
2019,02,05,09,49,-2.10
2019,02,05,09,50,-2.00
2019,02,05,09,51,-2.00
2019,02,05,09,52,-2.00
2019,02,05,09,53,-1.90
2019,02,05,09,54,-1.90
2019,02,05,09,55,-1.90
2019,02,05,09,56,-1.90
2019,02,05,09,57,-1.90
2019,02,05,09,58,-1.80
2019,02,05,09,59,-1.80
2019,02,05,10,00,-1.80
2019,02,05,10,01,-1.70
2019,02,05,10,02,-1.70
2019,02,05,10,03,-1.60
2019,02,05,10,04,-1.60
2019,02,05,10,05,-1.60
2019,02,05,10,06,-1.50
2019,02,05,10,07,-1.50
2019,02,05,10,08,-1.50
2019,02,05,10,09,-1.50
2019,02,05,10,10,-1.40
2019,02,05,10,11,-1.40
2019,02,05,10,12,-1.40
2019,02,05,10,13,-1.40
2019,02,05,10,14,-1.30
2019,02,05,10,15,-1.30
2019,02,05,10,16,-1.30
2019,02,05,10,17,-1.30
2019,02,05,10,18,-1.30
2019,02,05,10,19,-1.30
2019,02,05,10,20,-1.20
2019,02,05,10,21,-1.20
2019,02,05,10,22,-1.20
2019,02,05,10,23,-1.20
2019,02,05,10,24,-1.20
2019,02,05,10,25,-1.20
2019,02,05,10,26,-1.20
2019,02,05,10,27,-1.10
2019,02,05,10,28,-1.10
2019,02,05,10,29,-1.10
2019,02,05,10,30,-1.00
2019,02,05,10,31,-1.00
2019,02,05,10,32,-1.00
2019,02,05,10,33,-1.00
2019,02,05,10,34,-1.00
2019,02,05,10,35,-1.00
2019,02,05,10,36,-0.90
2019,02,05,10,37,-0.90
2019,02,05,10,38,-0.90
2019,02,05,10,39,-0.90
2019,02,05,10,40,-0.80
2019,02,05,10,41,-0.80
2019,02,05,10,42,-0.80
2019,02,05,10,43,-0.80
2019,02,05,10,44,-0.80
2019,02,05,10,45,-0.80
2019,02,05,10,46,-0.80
2019,02,05,10,47,-0.80
2019,02,05,10,48,-0.70
2019,02,05,10,49,-0.70
2019,02,05,10,50,-0.70
2019,02,05,10,51,-0.60
2019,02,05,10,52,-0.60
2019,02,05,10,53,-0.50
2019,02,05,10,54,-0.50
2019,02,05,10,55,-0.50
2019,02,05,10,56,-0.40
2019,02,05,10,57,-0.40
2019,02,05,10,58,-0.40
2019,02,05,10,59,-0.30
2019,02,05,11,00,-0.30
2019,02,05,11,01,-0.30
2019,02,05,11,02,-0.20
2019,02,05,11,03,-0.20
2019,02,05,11,04,-0.20
2019,02,05,11,05,-0.10
2019,02,05,11,06,-0.10
2019,02,05,11,07,-0.10
2019,02,05,11,08,-0.10
2019,02,05,11,09,-0.10
2019,02,05,11,10,-0.10
2019,02,05,11,11,-0.10
2019,02,05,11,12,-0.20
2019,02,05,11,13,-0.20
2019,02,05,11,14,-0.20
2019,02,05,11,15,-0.20
2019,02,05,11,16,-0.20
2019,02,05,11,17,-0.30
2019,02,05,11,18,-0.30
2019,02,05,11,19,-0.30
2019,02,05,11,20,-0.30
2019,02,05,11,21,-0.20
2019,02,05,11,22,-0.20
2019,02,05,11,23,-0.20
2019,02,05,11,24,-0.20
2019,02,05,11,25,-0.10
2019,02,05,11,26,-0.10
2019,02,05,11,27,0.00
2019,02,05,11,28,0.00
2019,02,05,11,29,0.10
2019,02,05,11,30,0.10
2019,02,05,11,31,0.20
2019,02,05,11,32,0.20
2019,02,05,11,33,0.20
2019,02,05,11,34,0.30
2019,02,05,11,35,0.30
2019,02,05,11,36,0.30
2019,02,05,11,37,0.30
2019,02,05,11,38,0.30
2019,02,05,11,39,0.30
2019,02,05,11,40,0.20
2019,02,05,11,41,0.20
2019,02,05,11,42,0.20
2019,02,05,11,43,0.20
2019,02,05,11,44,0.20
2019,02,05,11,45,0.10
2019,02,05,11,46,0.10
2019,02,05,11,47,0.10
2019,02,05,11,48,0.10
2019,02,05,11,49,0.10
2019,02,05,11,50,0.10
2019,02,05,11,51,0.10
2019,02,05,11,52,0.20
2019,02,05,11,53,0.20
2019,02,05,11,54,0.20
2019,02,05,11,55,0.20
2019,02,05,11,56,0.20
2019,02,05,11,57,0.20
2019,02,05,11,58,0.20
2019,02,05,11,59,0.20
2019,02,05,12,00,0.20
2019,02,05,12,01,0.20
2019,02,05,12,02,0.30
2019,02,05,12,03,0.30
2019,02,05,12,04,0.20
2019,02,05,12,05,0.30
2019,02,05,12,06,0.30
2019,02,05,12,07,0.30
2019,02,05,12,08,0.30
2019,02,05,12,09,0.30
2019,02,05,12,10,0.30
2019,02,05,12,11,0.30
2019,02,05,12,12,0.30
2019,02,05,12,13,0.30
2019,02,05,12,14,0.40
2019,02,05,12,15,0.40
2019,02,05,12,16,0.40
2019,02,05,12,17,0.40
2019,02,05,12,18,0.40
2019,02,05,12,19,0.40
2019,02,05,12,20,0.40
2019,02,05,12,21,0.40
2019,02,05,12,22,0.50
2019,02,05,12,23,0.50
2019,02,05,12,24,0.50
2019,02,05,12,25,0.50
2019,02,05,12,26,0.50
2019,02,05,12,27,0.50
2019,02,05,12,28,0.50
2019,02,05,12,29,0.40
2019,02,05,12,30,0.40
2019,02,05,12,31,0.30
2019,02,05,12,32,0.30
2019,02,05,12,33,0.20
2019,02,05,12,34,0.20
2019,02,05,12,35,0.20
2019,02,05,12,36,0.10
2019,02,05,12,37,0.20
2019,02,05,12,38,0.20
2019,02,05,12,39,0.20
2019,02,05,12,40,0.20
2019,02,05,12,41,0.20
2019,02,05,12,42,0.30
2019,02,05,12,43,0.30
2019,02,05,12,44,0.30
2019,02,05,12,45,0.40
2019,02,05,12,46,0.40
2019,02,05,12,47,0.40
2019,02,05,12,48,0.40
2019,02,05,12,49,0.40
2019,02,05,12,50,0.40
2019,02,05,12,51,0.40
2019,02,05,12,52,0.40
2019,02,05,12,53,0.50
2019,02,05,12,54,0.50
2019,02,05,12,55,0.50
2019,02,05,12,56,0.50
2019,02,05,12,57,0.50
2019,02,05,12,58,0.50
2019,02,05,12,59,0.50
2019,02,05,13,00,0.50
2019,02,05,13,01,0.50
2019,02,05,13,02,0.50
2019,02,05,13,03,0.50
2019,02,05,13,04,0.50
2019,02,05,13,05,0.60
2019,02,05,13,06,0.60
2019,02,05,13,07,0.60
2019,02,05,13,08,0.50
2019,02,05,13,09,0.50
2019,02,05,13,10,0.50
2019,02,05,13,11,0.40
2019,02,05,13,12,0.40
2019,02,05,13,13,0.40
2019,02,05,13,14,0.40
2019,02,05,13,15,0.40
2019,02,05,13,16,0.40
2019,02,05,13,17,0.30
2019,02,05,13,18,0.30
2019,02,05,13,19,0.30
2019,02,05,13,20,0.30
2019,02,05,13,21,0.30
2019,02,05,13,22,0.30
2019,02,05,13,23,0.30
2019,02,05,13,24,0.30
2019,02,05,13,25,0.30
2019,02,05,13,26,0.30
2019,02,05,13,27,0.30
2019,02,05,13,28,0.30
2019,02,05,13,29,0.30
2019,02,05,13,30,0.30
2019,02,05,13,31,0.40
2019,02,05,13,32,0.40
2019,02,05,13,33,0.40
2019,02,05,13,34,0.40
2019,02,05,13,35,0.50
2019,02,05,13,36,0.50
2019,02,05,13,37,0.60
2019,02,05,13,38,0.60
2019,02,05,13,39,0.60
2019,02,05,13,40,0.60
2019,02,05,13,41,0.60
2019,02,05,13,42,0.60
2019,02,05,13,43,0.70
2019,02,05,13,44,0.70
2019,02,05,13,45,0.70
2019,02,05,13,46,0.70
2019,02,05,13,47,0.70
2019,02,05,13,48,0.70
2019,02,05,13,49,0.70
2019,02,05,13,50,0.70
2019,02,05,13,51,0.70
2019,02,05,13,52,0.70
2019,02,05,13,53,0.80
2019,02,05,13,54,0.80
2019,02,05,13,55,0.80
2019,02,05,13,56,0.80
2019,02,05,13,57,0.80
2019,02,05,13,58,0.80
2019,02,05,13,59,0.80
2019,02,05,14,00,0.80
2019,02,05,14,01,0.80
2019,02,05,14,02,0.80
2019,02,05,14,03,0.80
2019,02,05,14,04,0.80
2019,02,05,14,05,0.80
2019,02,05,14,06,0.80
2019,02,05,14,07,0.80
2019,02,05,14,08,0.70
2019,02,05,14,09,0.60
2019,02,05,14,10,0.60
2019,02,05,14,11,0.60
2019,02,05,14,12,0.60
2019,02,05,14,13,0.60
2019,02,05,14,14,0.60
2019,02,05,14,15,0.60
2019,02,05,14,16,0.60
2019,02,05,14,17,0.60
2019,02,05,14,18,0.60
2019,02,05,14,19,0.50
2019,02,05,14,20,0.50
2019,02,05,14,21,0.50
2019,02,05,14,22,0.50
2019,02,05,14,23,0.40
2019,02,05,14,24,0.50
2019,02,05,14,25,0.40
2019,02,05,14,26,0.40
2019,02,05,14,27,0.40
2019,02,05,14,28,0.40
2019,02,05,14,29,0.40
2019,02,05,14,30,0.30
2019,02,05,14,31,0.30
2019,02,05,14,32,0.30
2019,02,05,14,33,0.30
2019,02,05,14,34,0.30
2019,02,05,14,35,0.30
2019,02,05,14,36,0.30
2019,02,05,14,37,0.30
2019,02,05,14,38,0.30
2019,02,05,14,39,0.30
2019,02,05,14,40,0.20
2019,02,05,14,41,0.20
2019,02,05,14,42,0.20
2019,02,05,14,43,0.20
2019,02,05,14,44,0.10
2019,02,05,14,45,0.10
2019,02,05,14,46,0.10
2019,02,05,14,47,0.10
2019,02,05,14,48,0.10
2019,02,05,14,49,0.00
2019,02,05,14,50,0.00
2019,02,05,14,51,0.00
2019,02,05,14,52,-0.10
2019,02,05,14,53,-0.10
2019,02,05,14,54,-0.10
2019,02,05,14,55,-0.10
2019,02,05,14,56,-0.10
2019,02,05,14,57,-0.10
2019,02,05,14,58,-0.10
2019,02,05,14,59,-0.10
2019,02,05,15,00,-0.10
2019,02,05,15,01,-0.10
2019,02,05,15,02,-0.20
2019,02,05,15,03,-0.20
2019,02,05,15,04,-0.20
2019,02,05,15,05,-0.20
2019,02,05,15,06,-0.20
2019,02,05,15,07,-0.20
2019,02,05,15,08,-0.20
2019,02,05,15,09,-0.30
2019,02,05,15,10,-0.30
2019,02,05,15,11,-0.30
2019,02,05,15,12,-0.30
2019,02,05,15,13,-0.30
2019,02,05,15,14,-0.30
2019,02,05,15,15,-0.30
2019,02,05,15,16,-0.30
2019,02,05,15,17,-0.30
2019,02,05,15,18,-0.30
2019,02,05,15,19,-0.30
2019,02,05,15,20,-0.40
2019,02,05,15,21,-0.40
2019,02,05,15,22,-0.40
2019,02,05,15,23,-0.40
2019,02,05,15,24,-0.40
2019,02,05,15,25,-0.40
2019,02,05,15,26,-0.40
2019,02,05,15,27,-0.40
2019,02,05,15,28,-0.40
2019,02,05,15,29,-0.30
2019,02,05,15,30,-0.30
2019,02,05,15,31,-0.30
2019,02,05,15,32,-0.30
2019,02,05,15,33,-0.30
2019,02,05,15,34,-0.30
2019,02,05,15,35,-0.30
2019,02,05,15,36,-0.30
2019,02,05,15,37,-0.40
2019,02,05,15,38,-0.40
2019,02,05,15,39,-0.40
2019,02,05,15,40,-0.50
2019,02,05,15,41,-0.50
2019,02,05,15,42,-0.60
2019,02,05,15,43,-0.60
2019,02,05,15,44,-0.60
2019,02,05,15,45,-0.70
2019,02,05,15,46,-0.70
2019,02,05,15,47,-0.70
2019,02,05,15,48,-0.80
2019,02,05,15,49,-0.80
2019,02,05,15,50,-0.80
2019,02,05,15,51,-0.80
2019,02,05,15,52,-0.80
2019,02,05,15,53,-0.80
2019,02,05,15,54,-0.80
2019,02,05,15,55,-0.80
2019,02,05,15,56,-0.80
2019,02,05,15,57,-0.80
2019,02,05,15,58,-0.90
2019,02,05,15,59,-0.90
2019,02,05,16,00,-0.90
2019,02,05,16,01,-0.90
2019,02,05,16,02,-0.90
2019,02,05,16,03,-0.90
2019,02,05,16,04,-1.00
2019,02,05,16,05,-1.00
2019,02,05,16,06,-1.00
2019,02,05,16,07,-1.00
2019,02,05,16,08,-1.00
2019,02,05,16,09,-1.00
2019,02,05,16,10,-1.00
2019,02,05,16,11,-1.00
2019,02,05,16,12,-1.00
2019,02,05,16,13,-1.10
2019,02,05,16,14,-1.10
2019,02,05,16,15,-1.10
2019,02,05,16,16,-1.10
2019,02,05,16,17,-1.10
2019,02,05,16,18,-1.10
2019,02,05,16,19,-1.20
2019,02,05,16,20,-1.20
2019,02,05,16,21,-1.20
2019,02,05,16,22,-1.20
2019,02,05,16,23,-1.20
2019,02,05,16,24,-1.20
2019,02,05,16,25,-1.30
2019,02,05,16,26,-1.30
2019,02,05,16,27,-1.30
2019,02,05,16,28,-1.30
2019,02,05,16,29,-1.30
2019,02,05,16,30,-1.30
2019,02,05,16,31,-1.30
2019,02,05,16,32,-1.30
2019,02,05,16,33,-1.30
2019,02,05,16,34,-1.30
2019,02,05,16,35,-1.30
2019,02,05,16,36,-1.30
2019,02,05,16,37,-1.30
2019,02,05,16,38,-1.30
2019,02,05,16,39,-1.30
2019,02,05,16,40,-1.30
2019,02,05,16,41,-1.30
2019,02,05,16,42,-1.30
2019,02,05,16,43,-1.30
2019,02,05,16,44,-1.40
2019,02,05,16,45,-1.40
2019,02,05,16,46,-1.40
2019,02,05,16,47,-1.40
2019,02,05,16,48,-1.40
2019,02,05,16,49,-1.40
2019,02,05,16,50,-1.40
2019,02,05,16,51,-1.40
2019,02,05,16,52,-1.50
2019,02,05,16,53,-1.50
2019,02,05,16,54,-1.50
2019,02,05,16,55,-1.60
2019,02,05,16,56,-1.60
2019,02,05,16,57,-1.60
2019,02,05,16,58,-1.60
2019,02,05,16,59,-1.60
2019,02,05,17,00,-1.70
2019,02,05,17,01,-1.70
2019,02,05,17,02,-1.70
2019,02,05,17,03,-1.70
2019,02,05,17,04,-1.80
2019,02,05,17,05,-1.80
2019,02,05,17,06,-1.80
2019,02,05,17,07,-1.90
2019,02,05,17,08,-1.90
2019,02,05,17,09,-1.90
2019,02,05,17,10,-2.00
2019,02,05,17,11,-2.00
2019,02,05,17,12,-2.00
2019,02,05,17,13,-2.00
2019,02,05,17,14,-2.00
2019,02,05,17,15,-2.10
2019,02,05,17,16,-2.10
2019,02,05,17,17,-2.10
2019,02,05,17,18,-2.20
2019,02,05,17,19,-2.20
2019,02,05,17,20,-2.20
2019,02,05,17,21,-2.20
2019,02,05,17,22,-2.20
2019,02,05,17,23,-2.30
2019,02,05,17,24,-2.30
2019,02,05,17,25,-2.30
2019,02,05,17,26,-2.40
2019,02,05,17,27,-2.40
2019,02,05,17,28,-2.40